Regional Weather Roundup
Issued by NWS

Home | Current Version | Previous Version | Text Only | Print | Product List | Glossary On
Versions: 1 2 3 4 5 6 7 8 9 10 11 12 13 14 15 16 17 18 19 20 21 22 23 24 25 26 27 28 29 30 31 32 33 34 35 36 37 38 39 40 41 42 43 44 45 46 47 48 49 50
000
ASUS45 KSLC 011810
RWRUT

UTAH REGIONAL WEATHER ROUNDUP
NATIONAL WEATHER SERVICE SALT LAKE CITY UT
1100 AM MST SUN FEB 01 2015

UTZ001>011-023>025-011900-

NORTHERN UTAH

CITY           SKY/WX    TMP DP  RH WIND       PRES   REMARKS
BRIGHAM CITY   MOSUNNY   36  29  74 S6        30.26F WCI  31
HILL AFB       SUNNY     39  21  49 SE6       30.25S WCI  34
LOGAN          PTSUNNY   32  26  78 CALM      30.25S
OGDEN          SUNNY     39  27  62 SE5       30.25S
PROVO AIRPORT  SUNNY     37  28  70 CALM      30.28R
SALT LAKE CITY MOSUNNY   40  28  62 CALM      30.25S
VERNAL         MOSUNNY   37  23  56 E3        30.19R
WENDOVER       SUNNY     37  25  60 E6        30.25R WCI  33
HEBER CITY     SUNNY     32  23  69 CALM      30.26R
WEST JORDAN    SUNNY     41  30  65 S8        30.26R

$$

UTZ012>022-026-027-011900-

SOUTHERN/CENTRAL UTAH

CITY           SKY/WX    TMP DP  RH WIND       PRES   REMARKS
BLANDING       SUNNY     39  32  75 CALM      30.25S
BRYCE CANYON   SUNNY     34  22  61 W14       30.24R WCI  25
CEDAR CITY     SUNNY     38  27  64 NE7       30.24R WCI  33
DELTA          SUNNY     36  32  86 CALM      30.27R
HANKSVILLE     SUNNY     39  36  87 SE3       30.22R
MILFORD        SUNNY     37  31  78 S8        30.25S WCI  31
MOAB/CYNLANDS  CLOUDY    39  39 100 SE3       30.18R
PRICE          SUNNY     44  15  31 NW9       30.18R
ST GEORGE      CLEAR     48  34  57 CALM      30.25R

$$

REGIONAL REPORTS     COLORADO/ARIZONA

CITY           SKY/WX    TMP DP  RH WIND       PRES   REMARKS
CRAIG, CO        N/A     26  18  71 MISG      30.20R
GRAND JUNCTION SUNNY     39  30  70 CALM      30.20R
RIFLE          CLOUDY    31  22  69 CALM      30.21S
MONTROSE       SUNNY     37  30  75 CALM      30.22R
CORTEZ         SUNNY     45  13  27 NW12      30.15R
PAGE, AZ       NOT AVBL
GRAND CANYON   SUNNY     46  19  34 E5        30.22R
KINGMAN        SUNNY     53  37  54 CALM      30.19S
FLAGSTAFF      SUNNY     43  19  38 E15       30.21R

$$

REGIONAL REPORTS    NEVADA/IDAHO/WYOMING

CITY           SKY/WX    TMP DP  RH WIND       PRES   REMARKS
LAS VEGAS, NV  MOSUNNY   57  31  37 S6        30.17S
ELY            SUNNY     40  20  44 S8        30.24S WCI  34
ELKO           CLOUDY    33  27  78 W6        30.24S WCI  28
POCATELLO, ID  CLOUDY    31  28  89 N5        30.23S WCI  26
BURLEY         CLOUDY    33  30  88 NE8       30.20S WCI  26
EVANSTON, WY   SUNNY     32  19  58 SW14      30.20R WCI  22
ROCK SPRINGS   SUNNY     28  11  48 VRB7      30.18R WCI  21
KEMMERER       SUNNY     28  19  69 W9        30.19  WCI  20

$$



USA.gov is the U.S. government's official web portal to all federal, state and local government web resources and services.